Total_Precipitation_Accumulation
1.24 1.44 1.76 2.16 2.42 2.70 2.91 3.11 3.20 3.18 3.27 3.49 3.51 3.33 3.12 2.89 2.54 2.34 2.31 2.24 2.15 2.12 2.02 1.83 1.84 1.96 1.84 1.72 1.78 1.83 1.79 1.68 1.55 1.47 1.25 1.10 1.01 0.91 0.73 0.61 0.60 0.63 0.68
0.99 1.16 1.44 1.75 2.06 2.35 2.72 2.94 3.12 3.28 3.14 3.03 3.17 3.23 3.20 3.06 2.82 2.60 2.52 2.35 2.22 2.16 2.14 2.09 1.99 2.07 2.08 1.99 1.89 1.90 1.95 1.87 1.81 1.75 1.64 1.41 1.21 0.96 0.78 0.67 0.62 0.63 0.69
0.85 0.99 1.18 1.41 1.71 2.01 2.37 2.65 2.86 3.11 3.23 3.17 3.30 3.35 3.31 3.16 2.93 2.67 2.50 2.39 2.32 2.25 2.15 2.16 2.18 2.18 2.20 2.13 2.03 1.96 1.94 1.96 1.89 1.81 1.90 1.61 1.24 0.99 0.85 0.73 0.67 0.65 0.67
0.76 0.90 1.05 1.22 1.44 1.76 2.02 2.28 2.60 2.87 3.10 3.24 3.18 3.10 3.05 2.85 2.65 2.61 2.69 2.60 2.42 2.30 2.27 2.20 2.17 2.22 2.19 2.12 2.16 2.16 2.00 2.00 1.99 1.92 1.76 1.56 1.29 1.19 1.03 0.87 0.80 0.73 0.69
0.74 0.82 0.95 1.11 1.29 1.56 1.81 1.98 2.24 2.56 2.74 2.76 2.79 2.85 2.83 2.77 2.71 2.74 2.73 2.69 2.48 2.29 2.23 2.22 2.17 2.14 2.16 2.14 2.17 2.21 2.20 2.09 2.02 1.94 1.83 1.75 1.54 1.35 1.28 1.11 0.98 0.95 0.85
0.79 0.86 0.94 1.06 1.15 1.31 1.55 1.77 1.86 2.08 2.32 2.38 2.46 2.56 2.49 2.53 2.56 2.58 2.64 2.68 2.53 2.28 2.17 2.15 2.10 2.07 2.07 2.07 2.14 2.21 2.26 2.20 2.07 1.95 1.78 1.71 1.63 1.47 1.43 1.29 1.09 1.07 0.98
0.93 1.00 1.00 1.11 1.16 1.24 1.31 1.53 1.67 1.74 1.92 2.12 2.24 2.25 2.32 2.34 2.37 2.34 2.40 2.58 2.62 2.34 2.13 2.10 2.11 2.07 2.02 2.06 2.19 2.27 2.26 2.26 2.17 2.08 1.94 1.80 1.64 1.55 1.58 1.57 1.36 1.19 1.04
1.07 1.12 1.12 1.26 1.32 1.34 1.35 1.42 1.51 1.49 1.58 1.79 1.99 2.04 2.15 2.16 2.11 2.05 2.04 2.14 2.31 2.38 2.31 2.23 2.19 2.18 2.14 2.10 2.12 2.13 2.14 2.17 2.13 2.04 1.95 1.86 1.72 1.67 1.68 1.69 1.75 1.63 1.33
1.13 1.22 1.25 1.29 1.28 1.27 1.37 1.44 1.50 1.45 1.39 1.45 1.58 1.72 1.85 1.90 1.84 1.81 1.78 1.82 1.92 2.08 2.25 2.28 2.22 2.15 2.11 2.09 2.10 2.05 1.97 2.01 2.01 1.97 1.89 1.79 1.65 1.63 1.63 1.63 1.73 1.89 1.72
1.00 1.13 1.15 1.14 1.19 1.22 1.29 1.41 1.48 1.51 1.42 1.39 1.42 1.50 1.56 1.60 1.59 1.59 1.60 1.58 1.63 1.67 1.84 2.03 2.10 2.09 2.04 2.00 2.02 2.01 1.90 1.91 1.83 1.77 1.78 1.72 1.61 1.53 1.52 1.58 1.65 1.74 1.81
0.87 0.91 0.93 0.97 1.03 1.08 1.20 1.35 1.45 1.47 1.37 1.40 1.42 1.39 1.42 1.51 1.49 1.42 1.43 1.49 1.49 1.47 1.55 1.68 1.81 1.87 1.91 1.90 1.89 1.84 1.82 1.82 1.77 1.71 1.64 1.58 1.55 1.57 1.53 1.53 1.59 1.66 1.74
0.81 0.79 0.78 0.76 0.76 0.83 0.94 1.06 1.18 1.22 1.23 1.28 1.37 1.31 1.29 1.43 1.47 1.39 1.33 1.36 1.38 1.28 1.29 1.37 1.45 1.53 1.58 1.61 1.63 1.62 1.62 1.64 1.64 1.61 1.59 1.54 1.49 1.48 1.48 1.52 1.55 1.58 1.60
0.65 0.62 0.62 0.65 0.63 0.65 0.74 0.87 0.97 1.05 1.13 1.19 1.24 1.21 1.18 1.25 1.31 1.35 1.33 1.30 1.34 1.29 1.20 1.17 1.21 1.26 1.30 1.35 1.37 1.36 1.37 1.39 1.41 1.45 1.48 1.47 1.51 1.53 1.48 1.45 1.44 1.40 1.40
0.50 0.47 0.46 0.48 0.49 0.53 0.64 0.73 0.79 0.87 1.00 1.07 1.08 1.06 1.07 1.08 1.10 1.14 1.18 1.16 1.16 1.21 1.23 1.13 1.05 1.07 1.13 1.19 1.25 1.25 1.25 1.26 1.29 1.33 1.36 1.39 1.42 1.42 1.42 1.45 1.43 1.38 1.36
0.36 0.34 0.35 0.37 0.39 0.40 0.46 0.58 0.69 0.77 0.90 1.02 1.04 1.04 1.00 0.97 0.97 0.99 0.97 0.98 1.02 1.07 1.14 1.13 1.06 1.01 1.04 1.09 1.14 1.18 1.20 1.19 1.21 1.24 1.25 1.30 1.43 1.48 1.43 1.40 1.39 1.42 1.49
0.32 0.29 0.27 0.27 0.30 0.33 0.36 0.45 0.59 0.69 0.80 0.92 0.98 0.99 0.97 0.93 0.91 0.90 0.90 0.87 0.92 0.99 1.08 1.12 1.13 1.11 1.11 1.32 1.31 1.22 1.20 1.21 1.20 1.18 1.14 1.15 1.23 1.25 1.31 1.33 1.31 1.38 1.51
0.31 0.29 0.28 0.27 0.27 0.29 0.36 0.45 0.55 0.60 0.67 0.74 0.82 0.86 0.87 0.89 0.88 0.87 0.91 0.97 0.99 1.03 1.12 1.19 1.23 1.22 1.28 1.41 1.33 1.30 1.16 1.15 1.16 1.12 1.07 1.03 1.01 1.06 0.98 1.07 1.15 1.18 1.29
0.27 0.27 0.28 0.27 0.25 0.28 0.33 0.43 0.55 0.64 0.70 0.76 0.79 0.79 0.83 0.88 0.91 0.97 1.05 1.14 1.20 1.23 1.29 1.37 1.39 1.39 1.39 1.41 1.32 1.32 1.13 1.04 1.00 0.95 0.88 0.85 0.81 0.82 0.89 0.93 1.01 0.96 0.94
0.28 0.28 0.29 0.31 0.31 0.32 0.35 0.41 0.54 0.64 0.71 0.78 0.84 0.86 0.93 1.01 1.06 1.15 1.23 1.26 1.34 1.34 1.31 1.31 1.31 1.29 1.26 1.27 1.21 1.18 1.02 0.95 0.88 0.81 0.76 0.75 0.70 0.83 0.97 0.96 0.99 0.85 0.77
0.31 0.31 0.30 0.30 0.34 0.38 0.42 0.50 0.62 0.72 0.81 0.89 0.99 1.00 1.02 1.08 1.11 1.14 1.12 1.11 1.12 1.11 1.06 1.03 1.01 0.99 0.96 1.00 0.99 1.01 0.94 0.89 0.80 0.74 0.71 0.79 0.76 0.89 0.98 0.90 0.90 0.85 0.73
0.40 0.40 0.40 0.43 0.49 0.55 0.61 0.71 0.81 0.93 0.99 1.01 1.07 1.05 1.00 1.01 0.99 0.94 0.88 0.83 0.80 0.77 0.75 0.74 0.72 0.70 0.70 0.74 0.78 0.86 0.88 0.91 0.87 0.78 0.72 0.71 0.85 0.93 0.98 0.91 0.80 0.84 0.88
0.38 0.43 0.49 0.52 0.55 0.65 0.76 0.85 0.94 1.00 0.96 0.92 0.90 0.84 0.75 0.72 0.68 0.67 0.67 0.66 0.64 0.65 0.64 0.62 0.61 0.57 0.56 0.60 0.65 0.74 0.83 0.90 0.89 0.84 0.74 0.74 0.91 0.93 0.91 0.88 0.89 0.97 0.98
0.28 0.32 0.40 0.45 0.46 0.52 0.60 0.67 0.68 0.66 0.65 0.64 0.65 0.63 0.58 0.56 0.56 0.57 0.60 0.63 0.62 0.63 0.62 0.60 0.62 0.61 0.56 0.58 0.67 0.71 0.80 0.87 0.85 0.82 0.85 0.89 0.92 0.89 0.84 0.87 0.95 0.93 0.87
0.25 0.26 0.29 0.33 0.35 0.37 0.41 0.44 0.44 0.45 0.48 0.52 0.55 0.57 0.57 0.54 0.54 0.56 0.57 0.62 0.66 0.67 0.65 0.64 0.64 0.63 0.59 0.59 0.64 0.71 0.78 0.85 0.87 0.86 0.85 0.83 0.83 0.86 0.86 0.84 0.84 0.84 0.88
0.23 0.25 0.31 0.36 0.39 0.38 0.40 0.41 0.44 0.47 0.50 0.53 0.57 0.60 0.62 0.60 0.58 0.58 0.61 0.65 0.70 0.78 0.83 0.79 0.74 0.74 0.72 0.68 0.80 0.87 0.86 0.90 0.93 0.97 0.90 0.83 0.81 0.84 0.83 0.80 0.79 0.82 0.89
0.24 0.25 0.29 0.34 0.40 0.39 0.40 0.42 0.46 0.52 0.55 0.54 0.56 0.59 0.63 0.64 0.64 0.60 0.60 0.65 0.69 0.73 0.75 0.76 0.77 0.73 0.75 0.78 0.83 0.86 0.88 0.94 1.03 1.07 0.95 0.84 0.79 0.81 0.79 0.80 0.82 0.84 0.88